This demonstration page uses our WeatherBlox Daily Observations layout. Learn more.

Left ArrowRight Arrow

34.02893, -84.19858

Hourly Observations for June 15, 2020

Temp ( °F °C ) Dew Point ( °F °C ) Humidity (%) Winds ( mph kmh ) Pressure ( in mb ) Visibility ( mi km ) Precip ( " mm )
12:53 am 00:53 Clear 62 16.7 61 16.1 96 96 N 5 7 30.15 1021 9 14 0.00 0.00
1:53 am 01:53 Clear 61 16.1 61 16.1 100 100 Calm 30.15 1021 9 14 0.00 0.00
2:53 am 02:53 Clear 61 16.1 60 15.6 97 97 Calm 30.14 1021 9 14 0.00 0.00
3:53 am 03:53 Clear 60 15.6 60 15.6 100 100 Calm 30.14 1021 9 14 0.00 0.00
4:53 am 04:53 Clear 60 15.6 59 15 96 96 Calm 30.13 1020 10 16 0.00 0.00
5:53 am 05:53 Partly Cloudy 60 15.6 59 15 96 96 Calm 30.14 1021 10 16 0.00 0.00
6:53 am 06:53 Mostly Sunny 61 16.1 59 15 93 93 NE 3 6 30.16 1021 10 16 0.00 0.00
7:53 am 07:53 Mostly Sunny 63 17.2 61 16.1 93 93 Calm 30.18 1022 10 16 0.00 0.00
8:53 am 08:53 Mostly Cloudy 66 18.9 61 16.1 84 84 Calm 30.19 1022 10 16 0.00 0.00
12:53 pm 12:53 Partly Cloudy 76 24.4 62 16.7 62 62 Calm 30.16 1021 10 16 0.00 0.00
1:53 pm 13:53 Mostly Cloudy 75 23.9 62 16.7 64 64 SSE 5 8 30.14 1021 10 16 0.00 0.00
2:53 pm 14:53 Mostly Cloudy 79 26.1 61 16.1 54 54 undefined 5 8 30.10 1019 10 16 0.00 0.00
4:12 pm 16:12 Mostly Sunny 79 26.1 59 15 50 50 N 14 22 30.09 1019 10 16 0.00 0.00
4:33 pm 16:33 Mostly Cloudy with Thunderstorms 64 17.8 58 14.4 81 81 undefined 6 9 30.15 1021 10 16 0.00 0.00
4:59 pm 16:59 Cloudy with Thunderstorms 64 17.8 60 15.6 87 87 NNE 11 18 30.15 1021 8 13 0.00 0.00
5:32 pm 17:32 Mostly Cloudy 68 20 61 16.1 78 78 NNE 11 18 30.14 1021 10 16 0.00 0.00
5:53 pm 17:53 Partly Cloudy 69 20.6 61 16.1 76 76 NNE 11 18 30.13 1020 10 16 0.00 0.00
6:53 pm 18:53 Mostly Sunny 70 21.1 60 15.6 71 71 undefined 7 11 30.13 1020 10 16 0.00 0.00
7:53 pm 19:53 Cloudy 69 20.6 60 15.6 73 73 VRB 3 6 30.15 1021 10 16 0.00 0.00
8:53 pm 20:53 Cloudy 68 20 61 16.1 78 78 NE 6 9 30.16 1021 10 16 0.00 0.00
9:53 pm 21:53 Cloudy 67 19.4 62 16.7 84 84 Calm 30.16 1021 10 16 0.00 0.00
10:53 pm 22:53 Cloudy 66 18.9 59 15 78 78 E 8 13 30.17 1022 10 16 0.00 0.00
11:53 pm 23:53 Clear 64 17.8 57 13.9 78 78 VRB 3 6 30.18 1022 10 16 0.00 0.00

Powered by AerisWeather